Home > Weather > Bad Radkersburg > Past weeks

Flag for Austria Past Weather in Bad Radkersburg, Styria, Austria — Yesterday and Last 2 Weeks

Now
80 °F

Warm.


Feels Like: 81 °F
Forecast: 59 / 81 °F
Wind: 3 mph from Southeast

Location: Murska Sobota

Current Time: May 27, 2016 at 6:22:37 PM

Latest Report: May 27, 2016 at 5:00 PM


Visibility: N/A

Pressure: 29.92 "Hg

Humidity: 48%

Dew Point: 59 °F

Location of Bad RadkersburgLocation

Past Weather in Bad Radkersburg — Graph

°F

Bad Radkersburg Temperature Yesterday

Maximum temperature yesterday: 77 °F (at 4:00 PM)
Minimum temperature yesterday: 59 °F (at 6:00 AM)
Average temperature yesterday: 68 °F

High & Low Weather Summary for the Past Weeks

 TemperatureHumidityPressure
High81 °F (May 27, 4:00 PM)99% (May 12, 10:00 PM)30.15 "Hg (May 12, 10:00 PM)
Low38 °F (May 16, 5:00 AM)37% (May 21, 2:00 PM)29.35 "Hg (May 13, 1:00 PM)
Average60 °F73%29.88 "Hg
* Reported May 12 5:00 PM — May 27 5:00 PM, Bad Radkersburg, Weather by CustomWeather, © 2016

Note: Actual official high and low records may vary slightly from our data, if they occured in-between our weather recording intervals... More about our weather records

Advertising

Bad Radkersburg Weather History for the Previous 24 Hours

Scroll right to see more
 ConditionsComfort  
Time TempWeatherWind HumidityBarometerVisibility
5:00 PM
Fri, May 27
80 °FWarm.3 mph48%29.92 "HgN/A
4:00 PM81 °FWarm.3 mph45%29.93 "HgN/A
3:00 PM80 °FOvercast.5 mph46%29.95 "Hg6 mi
2:00 PM80 °FScattered clouds.2 mph50%29.96 "Hg6 mi
1:00 PMN/A3 mphN/AN/AN/A
12:00 PMN/A3 mphN/AN/AN/A
11:00 AM74 °FMild.2 mph65%30.01 "HgN/A
10:00 AMN/A2 mphN/AN/AN/A
9:00 AM65 °FMild.1 mph87%30.03 "HgN/A
8:00 AM60 °FPartly sunny.1 mph92%N/A5 mi
7:00 AM59 °FFog.1 mph95%30.03 "Hg5 mi
6:00 AMN/A1 mphN/AN/AN/A
5:00 AM54 °FCool.1 mph97%30.03 "HgN/A
4:00 AM56 °FCool.1 mph97%30.02 "HgN/A
3:00 AM56 °FCool.No wind96%30.02 "HgN/A
2:00 AMN/A1 mphN/AN/AN/A
1:00 AM57 °FCool.1 mph94%30.02 "HgN/A
12:00 AM59 °FCool.1 mph93%30.02 "HgN/A
11:00 PM
Thu, May 26
N/A1 mphN/AN/AN/A
10:00 PM65 °FMild.1 mph78%30.00 "HgN/A
9:00 PMN/A2 mphN/AN/AN/A
8:00 PM72 °FPassing clouds.1 mph61%29.98 "Hg6 mi
7:00 PM75 °FMild.2 mph52%29.97 "HgN/A
6:00 PM75 °FMild.3 mph55%29.96 "HgN/A
Weather by CustomWeather, © 2016

See weather overviewHow to use our weather pages